Retour au catalogue

METEOR 1-21

ActifMétéoPO
NORAD 7714·PAYLOAD·🇷🇺 Russia

Lancé Apr 1, 1975 depuis Plesetsk Cosmodrome

Loading…

Prochains Passages (prochaines 24 heures)

TLE

FraisSource: Space-Track

Époque: Sep 14, 2026, 09:33 UTC

1 07714U 75023A   26257.39792248  .00000006  00000-0 -40249-5 0  9993
2 07714  81.1889 142.3738 0030039 102.3891 258.0644 14.08468439960093

Suivez METEOR 1-21 en temps réel avec AllMySat

Download on the App Store